Tracking 19170 objects as of 22-May-2018
HD Live streaming from Space Station
objects crossing your sky now

ORSTED

Track ORSTED now!
10-day predictions
ORSTED is classified as:


NORAD ID: 25635
Int'l Code: 1999-008B
Perigee: 641.5 km
Apogee: 836.7 km
Inclination: 96.4 °
Period: 99.4 minutes
Semi major axis: 7110 km
RCS: 0.3282 m2 (medium)
Launch date: February 23, 1999
Source: Denmark (DEN)
Launch site: AIR FORCE WESTERN TEST RANGE (AFWTR)

Magnetometer and a star camera for measurements of the geomagnetic field.
aabbcc
Your satellite tracking list
Your tracking list is empty




NASA's NSSDC Master Catalog

Two Line Element Set (TLE):
1 25635U 99008B   18142.13759540  .00000113  00000-0  34939-4 0  9994
2 25635  96.4466 333.3580 0137252 246.1891 112.4868 14.48076507 15282
Source of the keplerian elements: AFSPC